Regional Weather Roundup
Issued by NWS

Home | Current Version | Previous Version | Text Only | Print | Product List | Glossary Off
Versions: 1 2 3 4 5 6 7 8 9 10 11 12 13 14 15 16 17 18 19 20 21 22 23 24 25 26 27 28 29 30 31 32 33 34 35 36 37 38 39 40 41 42 43 44 45 46 47 48 49 50

000
ASUS45 KABQ 082010
RWRNM
NEW MEXICO REGIONAL WEATHER ROUNDUP
NATIONAL WEATHER SERVICE ALBUQUERQUE NM
100 PM MST MON FEB 08 2016

NOTE: "FAIR" MEANS FEW OR NO CLOUDS BELOW 12,000 FEET AGL WITH NO
       SIGNIFICANT WEATHER OR OBSTRUCTIONS TO VISION.

      THIS PRODUCT IS RELEASED AS TWO VERSIONS.  ONE VERSION NEAR
      THE TOP OF THE HOUR CONTAINING PRELIMINARY DATA FROM ALBUQUERQUE
      AND OTHER STATIONS.  A FINAL VERSION WITH ADDITIONAL DATA IS
      ISSUED ABOUT 10 MINUTES AFTER THE HOUR.

NMZ501-503-504-510>518-082100-
NORTHWEST PLATEAU/NORTHCENTRAL MOUNTAINS

CITY           SKY/WX    TMP DP  RH WIND       PRES   REMARKS
FARMINGTON     SUNNY     44  21  40 VRB6      30.44F
LOS ALAMOS     SUNNY     46  14  27 NE8       30.41F
SANTA FE       SUNNY     51  16  24 NW9       30.38F
TAOS           SUNNY     46  18  31 N8        30.42F
ANGEL FIRE     FAIR      43  16  33 NE3       30.41F

$$
NMZ402-403-502-505>509-082100-
WESTCENTRAL MOUNTAINS/SOUTHWEST MOUNTAINS

CITY           SKY/WX    TMP DP  RH WIND       PRES   REMARKS
GALLUP         SUNNY     52  19  27 S6        30.43F
GRANTS         SUNNY     57  16  20 N20G30    30.43F
SILVER CITY      N/A     59  16  18 S9        30.38F

$$
NMZ407-409-411-412-082100-
SOUTHERN DESERTS

CITY           SKY/WX    TMP DP  RH WIND       PRES   REMARKS
LORDSBURG      FAIR      61  19  20 SE15      30.34F
DEMING         SUNNY     61  16  17 NE9       30.36F
LAS CRUCES     SUNNY     58  18  21 E8        30.38F
HOLLOMAN AFB   SUNNY     56  19  22 VRB2      30.37F
ALAMOGORDO     SUNNY     55  18  22 W5        30.38F
T OR C         SUNNY     58  17  20 VRB3      30.35F

$$
NMZ519>523-082100-
CENTRAL VALLEYS/CENTRAL HIGHLANDS

CITY           SKY/WX    TMP DP  RH WIND       PRES   REMARKS
ALBUQUERQUE    MOSUNNY   56  15  20 NW8       30.39F
DOUBLE EAGLE   SUNNY     54  18  24 W9        30.41F
MORIARTY ARPT  FAIR      55  13  18 NW13G18   30.37F
CLINES CORNERS SUNNY     47  20  34 NW17      30.35F
BELEN          FAIR      55  17  22 N9        30.40F
SOCORRO        FAIR      55  16  21 N6        30.38F

$$
NMZ524>526-539-540-082100-
SOUTHCENTRAL MOUNTAINS

CITY           SKY/WX    TMP DP  RH WIND       PRES   REMARKS
RUIDOSO          N/A     57  10  15 NW15G21   30.38F

$$
NMZ527>531-082100-
NORTHEAST HIGHLANDS/NORTHEAST PLAINS

CITY           SKY/WX    TMP DP  RH WIND       PRES   REMARKS
LAS VEGAS      SUNNY     52  24  33 S10       30.35F
RATON          SUNNY     49  17  28 E8        30.36F
CLAYTON        SUNNY     49  19  30 NE13G21   30.39F

$$
NMZ532>537-082100-
EASTCENTRAL PLAINS

CITY           SKY/WX    TMP DP  RH WIND       PRES   REMARKS
TUCUMCARI      SUNNY     49  15  25 CALM      30.39F
CANNON AFB     SUNNY     47  15  27 SW8       30.41F
CLOVIS AIRPORT SUNNY     46  18  31 W5        30.43F

$$
NMZ028-029-538-082100-
SOUTHEAST PLAINS

CITY           SKY/WX    TMP DP  RH WIND       PRES   REMARKS
ROSWELL        SUNNY     50  15  24 S13       30.40F
ARTESIA        SUNNY     48  16  27 SE6G13    30.42F
CARLSBAD       SUNNY     50  10  20 SE10      30.41F
HOBBS          SUNNY     48   9  20 VRB3      30.43F


$$



USA.gov is the U.S. government's official web portal to all federal, state and local government web resources and services.